Tracking 29892 objects as of 21-Nov-2024
HD Live streaming from Space Station
objects crossing your sky now

FENGYUN 1C DEB

Track FENGYUN 1C DEB now!
10-day predictions


NORAD ID: 32203
Int'l Code: 1999-025CUZ
Perigee: 377.1 km
Apogee: 676.0 km
Inclination: 97.1 °
Period: 95.0 minutes
Semi major axis: 6897 km
RCS: 0.0067 m2 (small)
Launch date: May 10, 1999
Source: People's Republic of China (PRC)
Launch site: Taiyaun Space Center, China (TSC)

Note: This is SATELLITE DEBRIS
Your satellite tracking list
Your tracking list is empty




NASA's NSSDC Master Catalog

Two Line Element Set (TLE):
1 32203U 99025CUZ 24325.20771251  .00031110  00000-0  89621-3 0  9991
2 32203  97.0564 232.0392 0216697  36.1749 325.3921 15.15522429929332
Source of the keplerian elements: AFSPC